Tracking 34142 objects as of 18-May-2026
HD Live streaming from Space Station
objects crossing your sky now

KUIPER-00405

Track KUIPER-00405 now!
10-day predictions
KUIPER-00405 is classified as:


NORAD ID: 68923
Int'l Code: 2026-098E
Perigee: 466.2 km
Apogee: 485.8 km
Inclination: 51.9 °
Period: 94.0 minutes
Semi major axis: 6846 km
RCS: Unknown
Launch date: April 30, 2026
Source: United States (US)
Launch site: AIR FORCE EASTERN TEST RANGE (AFETR)
Your satellite tracking list
Your tracking list is empty




NASA's NSSDC Master Catalog

Two Line Element Set (TLE):
1 68923U 26098E   26137.65024286  .00008405  00000-0  27602-3 0  9992
2 68923  51.8760 215.0933 0014316  38.8473 321.3538 15.32334583  2653
Source of the keplerian elements: AFSPC